Regional Weather Roundup
Issued by NWS Green Bay, WI

Home | Current Version | Previous Version | Text Only | Print | Product List | Glossary On
Versions: 1 2 3 4 5 6 7 8 9 10 11 12 13 14 15 16 17 18 19 20 21 22 23 24 25 26 27 28 29 30 31 32 33 34 35 36 37 38 39 40 41 42 43 44 45 46 47 48 49 50
000
ASUS43 KGRB 251459
RWRGRB

NORTH-CENTRAL AND NORTHEAST WISCONSIN REGIONAL WEATHER ROUNDUP
NATIONAL WEATHER SERVICE GREEN BAY WI
900 AM CST TUE NOV 25 2014

WIZ005-009-010>012-018-019-251600-
NORTH CENTRAL WISCONSIN

CITY           SKY/WX    TMP DP  RH WIND       PRES   REMARKS
IRONWOOD       CLOUDY    16  12  86 W13       29.89R WCI   2
MANITOWISH WTR NOT AVBL
ARBOR VITAE    NOT AVBL
EAGLE RIVER    NOT AVBL
LAND O LAKES   NOT AVBL
RHINELANDER    LGT SNOW  15  11  83 W13       29.89R FOG     WCI   1
PHILLIPS       NOT AVBL
ANTIGO         NOT AVBL
TOMAHAWK       NOT AVBL
MERRILL        NOT AVBL
$$

WIZ013-073-251600-
NORTHEAST WISCONSIN

CITY           SKY/WX    TMP DP  RH WIND       PRES   REMARKS
IRON MOUNTAIN  LGT SNOW  21  14  74 NW12      29.87R WCI   9
MARINETTE      CLOUDY    25  18  74 NW6       29.91R
$$

WIZ017-030-035>037-045-251600-
CENTRAL WISCONSIN

CITY           SKY/WX    TMP DP  RH WIND       PRES   REMARKS
MEDFORD        NOT AVBL
WAUSAU         MOSUNNY   18  11  74 W13       29.93R WCI   5
MOSINEE        SUNNY     18  16  93 NW9       29.95R WCI   6
MARSHFIELD     FLURRIES  17  11  77 W9        29.96R WCI   6
WISC RAPIDS    LGT SNOW  19  11  70 W12       30.00R WCI   7
STEVENS POINT  NOT AVBL
WAUPACA        NOT AVBL
SHAWANO        NOT AVBL
CLINTONVILLE   NOT AVBL
$$

WIZ038-039-048-051-251600-
FOX VALLEY

CITY           SKY/WX    TMP DP  RH WIND       PRES   REMARKS
NWS GREEN BAY  PTSUNNY   24  19  81 W12       29.95R
APPLETON       PTSUNNY   21  19  93 W9        29.95R
OSHKOSH        PTSUNNY   22  15  75 W9        29.97R
FOND DU LAC    MOSUNNY   22  16  78 W13       29.98R WCI  10
$$

WIZ022-050-052-251600-
EAST CENTRAL WISCONSIN

CITY           SKY/WX    TMP DP  RH WIND       PRES   REMARKS
STURGEON BAY   CLOUDY    25  19  80 NW14      29.91R
MANITOWOC      NOT AVBL
SHEBOYGAN      PTSUNNY   24  19  81 W13       29.96R
$$

LMZ563-521-522-541>543-251600-
LAKESHORE

STATION/POSITION TIME  TEMP    WIND        PRES    VSBY  WAVE
                       AIR SEA DIR/SP/G                  HT/PER
                 (UTC) (F)     (DEG/KT/KT) (MB)    (MI)  (FT/S)
SHEBOYGAN LKSHOR 1400   24 36  270/ 11/ 12 1015.1R
KEWAUNEE LKSHORE 1400   24     300/  7/ 14 1012.3R
ALGOMA MARINA    1400             CALM       N/A
NORTHPORT PIER   1400   26     290/ 15/ 21 1011.9R
N MID LAKE BUOY  1400   29 42  300/ 23/ 29 1009.9R         5/ 5
CHAMBERS ISLAND  1400   25     300/  9/ 15 1012.5R
MENOMINEE LKSHOR 1400   25     270/  8/ 11 1013.4R
$$


USA.gov is the U.S. government's official web portal to all federal, state and local government web resources and services.